Tracking 18942 objects as of 18-Jan-2018
HD Live streaming from Space Station
objects crossing your sky now

NAVSTAR 33 (USA 92)

Track NAVSTAR 33 (USA 92) now!
NAVSTAR 33 (USA 92) is classified as:


NORAD ID: 22700
Int'l Code: 1993-042A
Perigee: 21,195.5 km
Apogee: 21,244.4 km
Inclination: 55.4 °
Period: 760.2 minutes
Semi major axis: 27590 km
RCS: 3.4011 m2 (large)
Launch date: June 26, 1993
Source: United States (US)
Launch site: AIR FORCE EASTERN TEST RANGE (AFETR)
PRN:
aabbcc
Your satellite tracking list
Your tracking list is empty




NASA's NSSDC Master Catalog

Two Line Element Set (TLE):
1 22700U 93042A   18017.79125711 +.00000011 +00000-0 +00000-0 0  9991
2 22700 055.4439 276.4283 0008866 323.3203 283.0584 01.89431885178923
Source of the keplerian elements: AFSPC